Trinidad, CO

7:54 PM MDT on July 24, 2016 (GMT -0600)
Stokes

Weather History for KTAD - February, 2013

Change the Weather History Date:

Tuesday, February 5, 2013

  Actual Average Record
Temperature  
Mean Temperature 40 °F 33 °F  
Max Temperature 58 °F 48 °F 74 °F (1963)
Min Temperature 22 °F 18 °F -24 °F (1982)
Degree Days  
Heating Degree Days 25 32  
Month to date heating degree days 135 160  
Since 1 July heating degree days 3185 3442  
Cooling Degree Days 0 0  
Month to date cooling degree days 0 0  
Year to date cooling degree days 0 0  
Moisture  
Dew Point 11 °F    
Average Humidity 35    
Maximum Humidity 55    
Minimum Humidity 15    
Precipitation  
Precipitation 0.00 in 0.01 in 0.20 in (1989)
Month to date precipitation 0.00 0.07  
Year to date precipitation 0.08 0.47  
Sea Level Pressure  
Sea Level Pressure 29.95 in    
Wind  
Wind Speed 9 mph (SSW)    
Max Wind Speed 20 mph    
Max Gust Speed 26 mph    
Visibility 10 miles    
Events      
T = Trace of Precipitation, MM = Missing Value Source: NWS Daily Summary

Daily Weather History Graph

Daily Weather History Graph

Search for Another Location

Airport or City:

Trip Planner

Search our weather history database for the weather conditions in past years. The results will help you decide how hot, cold, wet, or windy it might be!

Date:

Astronomy

Feb. 05, 2013 Rise Set
Actual Time 6:56 AM MST 5:26 PM MST
Civil Twilight 6:29 AM MST 5:53 PM MST
Nautical Twilight 5:58 AM MST 6:24 PM MST
Astronomical Twilight 5:27 AM MST 6:55 PM MST
Moon 2:38 AM MST (2/5) 12:49 PM MST (2/5)
Length of Visible Light 11h 24m
Length of Day
10h 30m
Waning Crescent, 26% of the Moon is Illuminated
Feb 5
Waning Crescent
Feb 10
New
Feb 17
First Quarter
Feb 25
Full
Mar 4
Last Quarter

Hourly Weather History & Observations

Time (MST) Temp. Windchill Dew Point Humidity Pressure Visibility Wind Dir Wind Speed Gust Speed Precip Events Conditions
12:54 AM 30.9 °F 22.2 °F 12.0 °F 46% 29.87 in 10.0 mi WSW 10.4 mph - N/A   Clear
1:54 AM 28.9 °F 18.6 °F 12.0 °F 49% 29.88 in 10.0 mi West 12.7 mph - N/A   Clear
2:54 AM 27.0 °F 18.0 °F 10.9 °F 51% 29.89 in 10.0 mi West 9.2 mph - N/A   Clear
3:54 AM 24.1 °F 14.4 °F 10.0 °F 55% 29.92 in 10.0 mi West 9.2 mph - N/A   Clear
4:54 AM 23.0 °F 14.7 °F 9.0 °F 55% 29.97 in 10.0 mi West 6.9 mph - N/A   Clear
5:54 AM 23.0 °F 15.8 °F 9.0 °F 55% 30.00 in 10.0 mi West 5.8 mph - N/A   Clear
6:54 AM 23.0 °F 13.1 °F 9.0 °F 55% 30.06 in 10.0 mi West 9.2 mph - N/A   Clear
7:54 AM 28.9 °F 21.1 °F 10.0 °F 45% 30.08 in 10.0 mi West 8.1 mph - N/A   Clear
8:54 AM 39.9 °F 36.7 °F 10.9 °F 31% 30.06 in 10.0 mi WSW 4.6 mph - N/A   Clear
9:54 AM 46.0 °F 43.9 °F 9.0 °F 22% 30.05 in 10.0 mi West 4.6 mph - N/A   Clear
10:54 AM 51.1 °F - 9.0 °F 18% 30.03 in 10.0 mi East 5.8 mph - N/A   Clear
11:54 AM 53.1 °F - 9.0 °F 17% 29.99 in 10.0 mi ENE 4.6 mph - N/A   Clear
12:54 PM 54.0 °F - 9.0 °F 17% 29.96 in 10.0 mi East 10.4 mph - N/A   Clear
1:54 PM 55.9 °F - 9.0 °F 15% 29.91 in 10.0 mi East 6.9 mph - N/A   Clear
2:54 PM 57.0 °F - 10.0 °F 15% 29.90 in 10.0 mi SE 10.4 mph 17.3 mph N/A   Clear
3:54 PM 57.0 °F - 10.0 °F 15% 29.89 in 10.0 mi East 16.1 mph 21.9 mph N/A   Clear
4:54 PM 54.0 °F - 12.0 °F 19% 29.90 in 10.0 mi SE 18.4 mph 23.0 mph N/A   Clear
5:54 PM 46.0 °F 41.0 °F 12.9 °F 26% 29.95 in 10.0 mi SE 10.4 mph - N/A   Clear
6:54 PM 42.1 °F 37.7 °F 12.9 °F 31% 29.98 in 10.0 mi South 6.9 mph - N/A   Clear
7:54 PM 42.1 °F 39.2 °F 12.9 °F 31% 29.96 in 10.0 mi SE 4.6 mph - N/A   Clear
8:54 PM 35.1 °F 27.9 °F 12.9 °F 40% 29.93 in 10.0 mi NE 9.2 mph - N/A   Clear
9:54 PM 35.1 °F 27.9 °F 14.0 °F 42% 29.89 in 10.0 mi North 9.2 mph - N/A   Clear
10:54 PM 30.9 °F 25.2 °F 12.0 °F 46% 29.87 in 10.0 mi SSW 5.8 mph - N/A   Clear
11:54 PM 41.0 °F 34.3 °F 15.1 °F 35% 29.83 in 10.0 mi WSW 11.5 mph - N/A   Clear